Find Starlink 31484

NORAD ID: 59005 Int'l Des: 2024-036 Owner: SPXS Country: US Constellation: starlink operational
LEOCIRCULAR

リアルタイム位置

3D地球を読み込み中...

Starlink 31484について

説明を読み込み中...

次回通過

Passes for default location (London). Set your location on the main map for personalized predictions.

高度履歴

Loading altitude history...

軌道要素

1 59005U 24036H 26126.54119264 .00001248 00000-0 54250-4 0 9998
2 59005 53.1606 169.1944 0001150 74.7181 285.3947 15.30202218124189
Epoch: May 6, 2026 • Age: 18 hours

現在のステータス

高度 477.0 km
速度 7.63 km/s
衛星直下点 33.18°N, 10.96°W
打ち上げ日 Feb 23, 2024
運用期間 2.2 years
タイプ internet

技術仕様

分類 Payload
質量 730.00 kg
乾燥質量 700.00 kg
総質量 730.00 kg
長さ 0.30 m
直径 4.10 m
スパン 29.00 m
形状 Box + pan
製造者 SPXS
バスタイプ Starlink V2M
フェーズステータス In Orbit
所有者/国 SPXS/US

Most Searched